Oberpfaffenhofen, Germany

10:58 PM CET on March 23, 2017 (GMT +0100)
Oberpfaffenhofen

Weather History for EDMO - July, 2013

Change the Weather History Date:

Wednesday, July 31, 2013

  Actual Average Record
Temperature  
Mean Temperature 70 °F -  
Max Temperature 78 °F 67 °F 86 °F (2001)
Min Temperature 62 °F 61 °F 42 °F (2007)
Cooling Degree Days 5    
Growing Degree Days 20 (Base 50)    
Moisture  
Dew Point 54 °F    
Average Humidity 53    
Maximum Humidity 73    
Minimum Humidity 39    
Precipitation  
Precipitation 0.00 in - - ()
Sea Level Pressure  
Sea Level Pressure 30.18 in    
Wind  
Wind Speed 10 mph ()    
Max Wind Speed 16 mph    
Max Gust Speed 28 mph    
Visibility 6.2 miles    
Events      
Averages and records for this station are not official NWS values.
T = Trace of Precipitation, MM = Missing Value Source: Averaged Metar Reports

Daily Weather History Graph

Daily Weather History Graph

Search for Another Location

Airport or City:

Trip Planner

Search our weather history database for the weather conditions in past years. The results will help you decide how hot, cold, wet, or windy it might be!

Date:

Astronomy

Jul. 31, 2013 Rise Set
Actual Time 5:49 AM CEST 8:52 PM CEST
Civil Twilight 5:12 AM CEST 9:28 PM CEST
Nautical Twilight 4:25 AM CEST 10:15 PM CEST
Astronomical Twilight 3:26 AM CEST 11:13 PM CEST
Moon 12:35 AM CEST (7/31) 3:53 PM CEST (7/31)
Length of Visible Light 16h 15m
Length of Day
15h 02m
Waning Crescent, 34% of the Moon is Illuminated
Jul 31
Waning Crescent
Aug 6
New
Aug 14
First Quarter
Aug 21
Full
Aug 28
Last Quarter

Hourly Weather History & Observations

Time (CEST) Temp. Dew Point Humidity Pressure Visibility Wind Dir Wind Speed Gust Speed Precip Events Conditions
6:50 AM 62.6 °F 53.6 °F 72% 30.18 in - SW 8.1 mph - N/A   Clear
7:20 AM 64.4 °F 53.6 °F 68% 30.18 in - SW 8.1 mph - N/A   Clear
7:50 AM 64.4 °F 55.4 °F 73% 30.18 in - SW 8.1 mph - N/A   Clear
8:20 AM 66.2 °F 55.4 °F 68% 30.18 in 6.2 mi SW 5.8 mph - N/A   Mostly Cloudy
8:50 AM 66.2 °F 53.6 °F 64% 30.18 in 6.2 mi WSW 13.8 mph - N/A   Mostly Cloudy
9:20 AM 66.2 °F 53.6 °F 64% 30.18 in 6.2 mi WSW 15.0 mph - N/A   Mostly Cloudy
9:50 AM 68.0 °F 55.4 °F 64% 30.21 in 6.2 mi West 15.0 mph - N/A   Mostly Cloudy
10:20 AM 69.8 °F 55.4 °F 60% 30.21 in - WSW 15.0 mph - N/A   Clear
10:50 AM 71.6 °F 55.4 °F 57% 30.21 in - West 16.1 mph - N/A   Clear
11:20 AM 73.4 °F 55.4 °F 53% 30.21 in 6.2 mi WSW 16.1 mph 27.6 mph N/A   Scattered Clouds
11:50 AM 71.6 °F 55.4 °F 57% 30.21 in 6.2 mi WSW 15.0 mph - N/A   Scattered Clouds
12:20 PM 71.6 °F 53.6 °F 53% 30.21 in 6.2 mi West 16.1 mph - N/A   Scattered Clouds
12:50 PM 73.4 °F 53.6 °F 50% 30.18 in - West 15.0 mph - N/A   Clear
1:20 PM 73.4 °F 53.6 °F 50% 30.18 in - West 13.8 mph - N/A   Clear
1:50 PM 75.2 °F 53.6 °F 47% 30.18 in 6.2 mi West 13.8 mph - N/A   Scattered Clouds
2:20 PM 75.2 °F 55.4 °F 50% 30.18 in 6.2 mi West 11.5 mph - N/A   Scattered Clouds
2:50 PM 77.0 °F 55.4 °F 47% 30.18 in 6.2 mi West 11.5 mph - N/A   Scattered Clouds
3:20 PM 77.0 °F 53.6 °F 44% 30.18 in - WSW 11.5 mph - N/A   Clear
3:50 PM 77.0 °F 53.6 °F 44% 30.18 in - WSW 9.2 mph - N/A   Clear
4:20 PM 77.0 °F 51.8 °F 41% 30.15 in - WSW 13.8 mph - N/A   Clear
4:50 PM 78.8 °F 51.8 °F 39% 30.15 in - West 11.5 mph - N/A   Clear
5:20 PM 78.8 °F 51.8 °F 39% 30.15 in - WNW 9.2 mph - N/A   Clear
5:50 PM 77.0 °F 51.8 °F 41% 30.15 in - NW 6.9 mph - N/A   Clear
6:20 PM 78.8 °F 51.8 °F 39% 30.15 in - WNW 6.9 mph - N/A   Clear
6:50 PM 78.8 °F 51.8 °F 39% 30.15 in - West 6.9 mph - N/A   Clear